Flag for U.S.A. Weather past 2 weeks in Oakland, California, U.S.A.

Now
64 °F

Passing clouds.


Feels Like: 64 °F
Forecast: 64 / 72 °F
Wind: 13 mph from Northwest

Location: Metro Oakland International Airport

Current Time: Sep 21, 2014 at 12:08:44 AM

Latest Report: Sep 20, 2014 at 10:53 PM


Visibility: 10 mi

Pressure: 29.95 "Hg

Humidity: 81%

Dew point: 58 °F

Location of OaklandLocation

Historic Weather in Oakland — Graph

°F

Oakland temperature yesterday

Maximum temperature yesterday: 70 °F (at 1:53 PM)
Minimum temperature yesterday: 63 °F (at 12:53 AM)
Average temperature yesterday: 66 °F

Past Weeks' High & Low Weather Summary

 TemperatureHumidityPressure
High82 °F (Sep 11, 1:53 PM)93% (Sep 10, 6:53 AM)30.00 "Hg (Sep 10, 6:53 AM)
Low55 °F (Sep 10, 1:53 AM)33% (Sep 11, 1:53 PM)29.75 "Hg (Sep 17, 6:53 PM)
Average66 °F73%29.88 "Hg
* Reported Sep 5 10:53 PM — Sep 20 10:53 PM, Oakland, Weather by CustomWeather, © 2014

Note: Actual official high and low records may vary slightly from our data, if they occured in-between our weather recording intervals... More about our weather records

Advertising

Oakland weather history for previous 24 hours

 ConditionsComfort  
Time TempWeatherWind HumidityBarometerVisibility
10:53 PM
Sep 20
64 °FPassing clouds.13 mph81%29.95 "Hg10 mi
9:53 PM64 °FPassing clouds.6 mph81%29.93 "Hg10 mi
8:53 PM64 °FPassing clouds.10 mph81%29.94 "Hg10 mi
7:53 PM64 °FBroken clouds.15 mph81%29.93 "Hg10 mi
6:53 PM65 °FScattered clouds.15 mph78%29.91 "Hg10 mi
5:53 PM68 °FScattered clouds.14 mph70%29.90 "Hg10 mi
4:53 PM70 °FPartly sunny.17 mph68%29.90 "Hg10 mi
3:53 PM70 °FBroken clouds.18 mph68%29.90 "Hg10 mi
2:53 PM70 °FPassing clouds.18 mph71%29.91 "Hg10 mi
1:53 PM70 °FPassing clouds.14 mph68%29.92 "Hg10 mi
12:53 PM69 °FPassing clouds.12 mph70%29.94 "Hg10 mi
11:53 AM68 °FBroken clouds.6 mph76%29.95 "Hg10 mi
10:53 AM67 °FCloudy.3 mph79%29.95 "Hg10 mi
5:53 AM63 °FMostly cloudy.6 mph87%29.89 "Hg10 mi
4:53 AM64 °FLow clouds.No wind84%29.88 "Hg10 mi
3:53 AM63 °FLow clouds.5 mph87%29.88 "Hg10 mi
2:53 AM64 °FLow clouds.6 mph84%29.89 "Hg10 mi
1:53 AM64 °FLow clouds.8 mph87%29.90 "Hg10 mi
12:53 AM63 °FMostly cloudy.8 mph87%29.89 "Hg10 mi
Weather by CustomWeather, © 2014

See weather overviewHow to use our weather pages